Home   Weather   Viña del Mar   Past weeks

Flag for Chile Past Weather in Viña del Mar, Chile — Yesterday and Last 2 Weeks

Now
57 °F

Passing clouds.


Feels Like: 56 °F
Forecast: 56 / 62 °F
Wind: 6 mph from South

Location: Pudahuel

Current Time: Aug 31, 2016 at 1:21:27 AM

Latest Report: Aug 31, 2016 at 1:00 AM


Visibility: N/A

Pressure: 30.09 "Hg

Humidity: 59%

Dew Point: 43 °F

Location of Viña del MarLocation

Past Weather in Viña del Mar — Graph

°F

Viña del Mar Temperature Yesterday

Maximum temperature yesterday: 72 °F (at 3:00 PM)
Minimum temperature yesterday: 41 °F (at 5:00 AM)
Average temperature yesterday: 56 °F

High & Low Weather Summary for the Past Weeks

 TemperatureHumidityPressure
High77 °F (Aug 22, 3:00 PM)100% (Aug 23, 5:00 AM)30.30 "Hg (Aug 23, 5:00 AM)
Low32 °F (Aug 21, 7:00 AM)12% (Aug 21, 4:00 PM)29.83 "Hg (Aug 22, 7:00 AM)
Average52 °F66%30.11 "Hg
* Reported Aug 16 12:00 AM — Aug 31 12:00 AM, Viña del Mar, Weather by CustomWeather, © 2016

Note: Actual official high and low records may vary slightly from our data, if they occured in-between our weather recording intervals... More about our weather records

Advertising

Viña del Mar Weather History for the Previous 24 Hours

Scroll right to see more
 ConditionsComfort  
Time TempWeatherWind HumidityBarometerVisibility
12:00 AM
Wed, Aug 31
59 °FPassing clouds.6 mph55%30.09 "HgN/A
11:00 PM
Tue, Aug 30
59 °FPassing clouds.6 mph55%30.09 "HgN/A
10:00 PM61 °FPassing clouds.7 mph55%30.09 "HgN/A
9:00 PM63 °FPassing clouds.5 mph45%30.07 "HgN/A
8:00 PM63 °FPassing clouds.6 mph42%30.07 "HgN/A
7:00 PM68 °FScattered clouds.7 mph33%30.04 "HgN/A
6:00 PM70 °FPassing clouds.10 mph29%30.04 "HgN/A
5:00 PM72 °FSunny.12 mph25%30.04 "Hg10 mi
4:00 PM72 °FSunny.10 mph27%30.07 "Hg10 mi
3:00 PM72 °FPassing clouds.8 mph29%30.09 "HgN/A
2:00 PM68 °FPassing clouds.6 mph35%30.12 "HgN/A
1:00 PM64 °FSunny.2 mph40%30.12 "Hg10 mi
12:00 PM61 °FClear.3 mph48%30.15 "Hg5 mi
11:00 AM55 °FClear.2 mph59%30.18 "Hg5 mi
10:00 AM46 °FHaze.6 mph82%30.18 "Hg3 mi
9:00 AM41 °FClear.6 mph87%30.18 "Hg2 mi
8:00 AM41 °FHaze.3 mph81%30.18 "Hg3 mi
7:00 AM45 °FClear.3 mph76%30.18 "Hg5 mi
6:00 AM45 °FClear.2 mph76%30.15 "Hg4 mi
5:00 AM41 °FClear.2 mph81%30.15 "Hg4 mi
4:00 AM46 °FClear.No wind82%30.18 "Hg10 mi
3:00 AM46 °FClear.No wind76%30.18 "Hg10 mi
2:00 AM45 °FClear.3 mph76%30.18 "Hg10 mi
1:00 AM48 °FClear.5 mph76%30.18 "Hg10 mi
Weather by CustomWeather, © 2016

See weather overviewHow to use our weather pages